Location: Unspecified
(0.0000°N, 0.0000°E)
Time: 21:47:36
(UTC+00:00)

Vanguard 3 - Pass Details

Date: 13 December 2017
Orbit: 508 x 3264 km, 33.4° (Epoch: 18 January)

Event Time Altitude Azimuth Distance (km) Brightness Sun altitude
Rises 05:32:55 0° 223° (SW) 7,143 11.8 -4.9°
Reaches altitude 10° 05:39:06 10° 214° (SSW) 5,898 11.4 -3.5°
Maximum altitude 05:53:20 31° 159° (SSE) 3,505 11.0 -0.2°
Drops below altitude 10° 06:02:51 10° 101° (E) 3,949 12.7 2.0°
Sets 06:05:58 0° 90° (E) 4,570 12.5 2.7°
